When you browse on this site, cookies collect data to enhance your experience and personalize the content and advertising you see.
Visit our Privacy Policy to learn more. By continuing to use the site, you agree to this use of cookies and data.
  • In Latvia
  • List of Countries
  • For 7 days
  • Water Temperature
  • Satellite Maps
  • Weather Map
  • Weather Widgets
  • user-avatar
    Login

    Hourly Weather Istomino

    Today, 18 November, Sunday

    Time Temperature Precipitation Wind Pressure Humidity
    00:00 -4°C° 0 mm 2 mps 770 mmHg 84%
    01:00 -4°C° 0 mm 2 mps 770 mmHg 84%
    02:00 -4°C° 0 mm 2 mps 770 mmHg 85%
    03:00 -4°C° 0 mm 2 mps 769 mmHg 85%
    04:00 -4°C° 0 mm 2 mps 769 mmHg 85%
    05:00 -4°C° 0 mm 2 mps 769 mmHg 85%
    06:00 -4°C° 0 mm 2 mps 769 mmHg 86%
    07:00 -4°C° 0 mm 2 mps 769 mmHg 85%
    08:00 -4°C° 0 mm 2 mps 769 mmHg 85%
    09:00 -3°C° 0 mm 2 mps 768 mmHg 85%
    10:00 -2°C° 0 mm 2 mps 768 mmHg 84%
    11:00 0°C° 0 mm 1 mps 768 mmHg 83%
    12:00 +1°C° 0 mm 1 mps 768 mmHg 82%
    13:00 +2°C° 0 mm 1 mps 768 mmHg 84%
    14:00 +2°C° 0 mm 1 mps 768 mmHg 85%
    15:00 +2°C° 0 mm 1 mps 768 mmHg 87%
    16:00 +2°C° 0 mm 1 mps 768 mmHg 89%
    17:00 +1°C° 0 mm 1 mps 768 mmHg 91%
    18:00 +1°C° 0 mm 1 mps 768 mmHg 93%
    19:00 +1°C° 0 mm 1 mps 768 mmHg 93%
    20:00 +1°C° 0 mm 1 mps 767 mmHg 94%
    21:00 +1°C° 0 mm 1 mps 767 mmHg 94%
    22:00 +1°C° 0 mm 1 mps 767 mmHg 94%
    23:00 -1°C° 0 mm 2 mps 767 mmHg 95%

    Tomorrow, 19 November, Monday

    Time Temperature Precipitation Wind Pressure Humidity
    00:00 -1°C° 0 mm 2 mps 767 mmHg 95%
    01:00 -1°C° 0 mm 2 mps 767 mmHg 95%
    02:00 -1°C° 0 mm 2 mps 767 mmHg 96%
    03:00 -1°C° 0 mm 2 mps 767 mmHg 96%
    04:00 -1°C° 0 mm 2 mps 767 mmHg 96%
    05:00 +1°C° 0 mm 2 mps 767 mmHg 97%
    06:00 +1°C° 0 mm 2 mps 767 mmHg 97%
    07:00 0°C° 0 mm 3 mps 767 mmHg 97%
    08:00 0°C° 0 mm 3 mps 767 mmHg 96%
    09:00 0°C° 0 mm 3 mps 767 mmHg 96%
    10:00 0°C° 0 mm 4 mps 767 mmHg 96%
    11:00 +1°C° 0 mm 4 mps 766 mmHg 95%
    12:00 +1°C° 0 mm 4 mps 766 mmHg 95%
    13:00 +1°C° 0 mm 4 mps 766 mmHg 94%
    14:00 +3°C° 0 mm 4 mps 766 mmHg 94%
    15:00 +3°C° 0 mm 4 mps 765 mmHg 94%
    16:00 +2°C° 0 mm 5 mps 765 mmHg 94%
    17:00 +2°C° 0 mm 5 mps 765 mmHg 94%
    18:00 +2°C° 0 mm 5 mps 765 mmHg 94%
    19:00 +2°C° 0.3 mm 5 mps 765 mmHg 93%
    20:00 +2°C° 0.3 mm 5 mps 764 mmHg 91%
    21:00 +2°C° 0.3 mm 6 mps 764 mmHg 90%
    22:00 +2°C° 0.5 mm 6 mps 764 mmHg 90%
    23:00 +2°C° 0.5 mm 6 mps 764 mmHg 90%

    Day after tomorrow, 20 November, Tuesday

    Time Temperature Precipitation Wind Pressure Humidity
    00:00 +2°C° 0.5 mm 6 mps 764 mmHg 90%
    01:00 +2°C° 0.7 mm 6 mps 763 mmHg 91%
    02:00 +2°C° 0.7 mm 6 mps 763 mmHg 92%
    03:00 +2°C° 0.7 mm 6 mps 763 mmHg 92%
    04:00 +2°C° 1.5 mm 6 mps 762 mmHg 92%
    05:00 +2°C° 1.5 mm 6 mps 762 mmHg 93%
    06:00 +2°C° 1.5 mm 6 mps 761 mmHg 93%
    07:00 +3°C° 0.4 mm 6 mps 761 mmHg 93%
    08:00 +3°C° 0.4 mm 6 mps 761 mmHg 92%
    09:00 +3°C° 0.4 mm 6 mps 761 mmHg 92%
    10:00 +3°C° 0.1 mm 5 mps 761 mmHg 93%
    11:00 +5°C° 0.1 mm 5 mps 761 mmHg 93%
    12:00 +5°C° 0.1 mm 4 mps 761 mmHg 94%
    13:00 +6°C° 0.1 mm 4 mps 760 mmHg 91%
    14:00 +6°C° 0.1 mm 4 mps 760 mmHg 88%
    15:00 +7°C° 0.1 mm 4 mps 760 mmHg 86%
    16:00 +6°C° 0.6 mm 4 mps 760 mmHg 87%
    17:00 +6°C° 0.6 mm 4 mps 760 mmHg 89%
    18:00 +6°C° 0.6 mm 5 mps 760 mmHg 90%
    19:00 +6°C° 0.3 mm 5 mps 760 mmHg 91%
    20:00 +6°C° 0.3 mm 5 mps 760 mmHg 92%
    21:00 +6°C° 0.3 mm 5 mps 761 mmHg 92%
    22:00 +5°C° 0 mm 5 mps 761 mmHg 92%
    23:00 +5°C° 0 mm 4 mps 761 mmHg 92%

    21 November, Wednesday

    Time Temperature Precipitation Wind Pressure Humidity
    00:00 +5°C° 0 mm 4 mps 761 mmHg 92%
    01:00 +4°C° 0 mm 4 mps 762 mmHg 92%
    02:00 +4°C° 0 mm 4 mps 762 mmHg 93%
    03:00 +3°C° 0 mm 3 mps 762 mmHg 93%
    04:00 +3°C° 0 mm 3 mps 763 mmHg 93%
    05:00 +3°C° 0 mm 3 mps 763 mmHg 92%
    06:00 +4°C° 0 mm 2 mps 763 mmHg 92%
    07:00 +4°C° 0 mm 2 mps 763 mmHg 91%
    08:00 +4°C° 0 mm 2 mps 763 mmHg 90%
    09:00 +4°C° 0 mm 2 mps 764 mmHg 89%
    10:00 +4°C° 0 mm 2 mps 764 mmHg 87%
    11:00 +4°C° 0 mm 2 mps 764 mmHg 84%
    12:00 +5°C° 0 mm 2 mps 763 mmHg 82%
    13:00 +5°C° 0 mm 2 mps 763 mmHg 82%
    14:00 +4°C° 0 mm 3 mps 763 mmHg 81%
    15:00 +4°C° 0 mm 3 mps 763 mmHg 81%
    16:00 +4°C° 0 mm 3 mps 763 mmHg 82%
    17:00 +3°C° 0 mm 3 mps 763 mmHg 83%
    18:00 +3°C° 0 mm 3 mps 763 mmHg 84%
    19:00 +3°C° 0 mm 4 mps 763 mmHg 84%
    20:00 +3°C° 0 mm 4 mps 763 mmHg 84%
    21:00 +3°C° 0 mm 4 mps 763 mmHg 84%
    22:00 +1°C° 0 mm 4 mps 763 mmHg 84%
    23:00 +1°C° 0 mm 4 mps 763 mmHg 84%

    22 November, Thursday

    Time Temperature Precipitation Wind Pressure Humidity
    00:00 +1°C° 0 mm 4 mps 763 mmHg 83%
    01:00 +1°C° 0 mm 4 mps 763 mmHg 82%
    02:00 +1°C° 0 mm 4 mps 763 mmHg 81%
    03:00 +1°C° 0 mm 4 mps 763 mmHg 80%
    04:00 0°C° 0 mm 4 mps 763 mmHg 79%
    05:00 0°C° 0 mm 5 mps 763 mmHg 78%
    06:00 0°C° 0 mm 5 mps 763 mmHg 76%
    07:00 0°C° 0 mm 5 mps 764 mmHg 74%
    08:00 0°C° 0 mm 5 mps 764 mmHg 72%
    09:00 0°C° 0 mm 5 mps 764 mmHg 71%
    10:00 0°C° 0 mm 5 mps 764 mmHg 68%
    11:00 +1°C° 0 mm 5 mps 764 mmHg 66%
    12:00 +1°C° 0 mm 5 mps 764 mmHg 64%
    13:00 +1°C° 0 mm 5 mps 764 mmHg 63%
    14:00 +2°C° 0 mm 5 mps 764 mmHg 63%
    15:00 +2°C° 0 mm 5 mps 764 mmHg 63%
    16:00 +1°C° 0 mm 5 mps 764 mmHg 66%
    17:00 0°C° 0 mm 4 mps 764 mmHg 69%
    18:00 -1°C° 0 mm 4 mps 765 mmHg 72%
    19:00 -1°C° 0 mm 4 mps 765 mmHg 73%
    20:00 -2°C° 0 mm 4 mps 765 mmHg 74%
    21:00 -2°C° 0 mm 4 mps 766 mmHg 75%
    22:00 -3°C° 0 mm 4 mps 766 mmHg 76%
    23:00 -3°C° 0 mm 4 mps 766 mmHg 76%

    23 November, Friday

    Time Temperature Precipitation Wind Pressure Humidity
    00:00 -3°C° 0 mm 4 mps 766 mmHg 76%
    01:00 -3°C° 0 mm 4 mps 766 mmHg 76%
    02:00 -2°C° 0 mm 3 mps 766 mmHg 75%
    03:00 -2°C° 0 mm 3 mps 767 mmHg 75%
    04:00 -2°C° 0 mm 3 mps 767 mmHg 74%
    05:00 -4°C° 0 mm 3 mps 767 mmHg 74%
    06:00 -4°C° 0 mm 3 mps 767 mmHg 73%
    07:00 -2°C° 0 mm 3 mps 767 mmHg 71%
    08:00 -2°C° 0 mm 3 mps 768 mmHg 69%
    09:00 -2°C° 0 mm 3 mps 768 mmHg 68%
    10:00 -1°C° 0 mm 3 mps 768 mmHg 64%
    11:00 0°C° 0 mm 3 mps 768 mmHg 61%
    12:00 0°C° 0 mm 4 mps 769 mmHg 57%
    13:00 0°C° 0 mm 4 mps 769 mmHg 59%
    14:00 0°C° 0 mm 4 mps 768 mmHg 60%
    15:00 0°C° 0 mm 4 mps 768 mmHg 61%
    16:00 0°C° 0 mm 3 mps 769 mmHg 66%
    17:00 -1°C° 0 mm 3 mps 769 mmHg 72%
    18:00 -2°C° 0 mm 3 mps 769 mmHg 77%
    19:00 -2°C° 0 mm 3 mps 770 mmHg 78%
    20:00 -2°C° 0 mm 3 mps 770 mmHg 79%
    21:00 -2°C° 0 mm 3 mps 770 mmHg 80%
    22:00 -2°C° 0 mm 3 mps 770 mmHg 81%
    23:00 -2°C° 0 mm 3 mps 770 mmHg 81%
    Show more